Location: Newark
(48.5667°N, 12.8167°E)
Time: 12:44:29
(UTC+00:00)

METEOR M2 - Pass Details

Date: 21 November 2019
Orbit: 818 x 828 km, 98.5° (Epoch: 06 December)

Event Time Altitude Azimuth Distance (km) Brightness Sun altitude
Exits shadow 19:17:19 15° 337° (NNW) 2,112 ? -38.2°
Drops below altitude 10° 19:18:09 10° 340° (NNW) 2,435 ? -38.4°
Sets 19:20:33 0° 343° (NNW) 3,370 ? -38.8°
